Location: Unspecified
(0.0000°N, 0.0000°E)
Time: 23:10:05
(UTC+00:00)

Transit 2A - Visible Passes

Search period start: 28 May 2022 00:00
Search period end: 07 June 2022 00:00
Orbit: 598 x 959 km, 66.7° (Epoch: 28 May)

Date Brightness Start Highest point End Pass type
(mag) Time Alt. Az. Time Alt. Az. Time Alt. Az.
28 May 7.0 03:52:54 36° SSE 03:55:10 53° ESE 04:01:08 10° NE visible
29 May 7.7 03:20:32 33° ESE 03:20:52 33° ESE 03:26:19 10° NE visible
29 May 7.6 05:01:04 17° WSW 05:03:50 23° WNW 05:08:30 10° NNW visible
30 May 8.6 02:48:05 19° E 02:48:05 19° E 02:51:03 10° ENE visible
30 May 7.0 04:28:37 34° W 04:29:35 36° WNW 04:35:06 10° N visible
31 May 6.6 03:56:04 54° NW 03:56:04 54° NW 04:01:17 10° N visible
01 Jun 7.4 03:23:26 40° NNE 03:23:26 40° NNE 03:27:09 10° NNE visible
02 Jun 8.4 02:50:44 22° NE 02:50:44 22° NE 02:52:44 10° NNE visible
02 Jun 8.4 04:31:15 11° NW 04:31:15 11° NW 04:32:08 10° NW visible
03 Jun 9.2 02:17:56 10° NE 02:17:56 10° NE 02:17:59 10° NE visible
03 Jun 8.3 03:58:27 15° NW 03:58:27 15° NW 03:59:49 10° NNW visible
04 Jun 8.5 03:25:35 14° NNW 03:25:35 14° NNW 03:26:31 10° N visible
05 Jun 8.9 02:52:38 11° N 02:52:38 11° N 02:52:46 10° N visible
